<?xml version='1.0' encoding='UTF-8'?>
<gpx xmlns="http://www.topografix.com/GPX/1/1" creator="www.balnam.be" version="1.1" xmlns:xsi="http://www.w3.org/2001/XMLSchema-instance" xsi:schemaLocation="http://www.topografix.com/GPX/1/1 http://www.topografix.com/GPX/1/1/gpx.xsd">
<trk>
<name>lvbwd1</name>
<cmt>v</cmt>
<desc>Warnant-Dreye Chemin n°1 </desc>
<link href="https://chemins.be/warnantdreye/chemin/1"/><trkseg>
<trkpt lat="50.608225" lon="5.210468"><time>2026-05-02T19:16:11Z</time></trkpt>
<trkpt lat="50.607877" lon="5.208803"><time>2026-05-02T19:26:11Z</time></trkpt>
<trkpt lat="50.605578" lon="5.202468"><time>2026-05-02T19:36:11Z</time></trkpt>
</trkseg>
</trk>
<trk>
<name>lvbwd10</name>
<cmt>s</cmt>
<desc>Warnant-Dreye Chemin n°10 </desc>
<link href="https://chemins.be/warnantdreye/chemin/10"/><trkseg>
<trkpt lat="50.595455" lon="5.238557"><time>2026-05-02T19:16:11Z</time></trkpt>
<trkpt lat="50.592555" lon="5.246427"><time>2026-05-02T19:26:11Z</time></trkpt>
</trkseg>
</trk>
<trk>
<name>lvbwd11</name>
<cmt>s</cmt>
<desc>Warnant-Dreye Chemin n°11 </desc>
<link href="https://chemins.be/warnantdreye/chemin/11"/><trkseg>
<trkpt lat="50.591992" lon="5.254298"><time>2026-05-02T19:16:11Z</time></trkpt>
<trkpt lat="50.594556" lon="5.254064"><time>2026-05-02T19:26:11Z</time></trkpt>
</trkseg>
</trk>
<trk>
<name>lvbwd12</name>
<cmt>v</cmt>
<desc>Warnant-Dreye Chemin n°12 </desc>
<link href="https://chemins.be/warnantdreye/chemin/12"/><trkseg>
<trkpt lat="50.601162" lon="5.249163"><time>2026-05-02T19:16:11Z</time></trkpt>
<trkpt lat="50.601182" lon="5.248744"><time>2026-05-02T19:26:11Z</time></trkpt>
<trkpt lat="50.601353" lon="5.248090"><time>2026-05-02T19:36:11Z</time></trkpt>
<trkpt lat="50.600978" lon="5.245671"><time>2026-05-02T19:46:11Z</time></trkpt>
</trkseg>
</trk>
<trk>
<name>lvbwd14</name>
<cmt>s</cmt>
<desc>Warnant-Dreye Chemin n°14 </desc>
<link href="https://chemins.be/warnantdreye/chemin/14"/><trkseg>
<trkpt lat="50.592371" lon="5.217515"><time>2026-05-02T19:16:11Z</time></trkpt>
<trkpt lat="50.584025" lon="5.209976"><time>2026-05-02T19:26:11Z</time></trkpt>
<trkpt lat="50.583643" lon="5.209991"><time>2026-05-02T19:36:11Z</time></trkpt>
</trkseg></trk>
<trk>
<name>lvbwd14</name>
<cmt>v</cmt>
<desc>Warnant-Dreye Chemin n°14 </desc>
<link href="https://chemins.be/warnantdreye/chemin/14"/><trkseg>
<trkpt lat="50.583643" lon="5.209991"><time>2026-05-02T19:36:11Z</time></trkpt>
<trkpt lat="50.582720" lon="5.208689"><time>2026-05-02T19:46:11Z</time></trkpt>
<trkpt lat="50.581961" lon="5.208591"><time>2026-05-02T19:56:11Z</time></trkpt>
<trkpt lat="50.581452" lon="5.208710"><time>2026-05-02T20:06:11Z</time></trkpt>
<trkpt lat="50.580905" lon="5.207458"><time>2026-05-02T20:16:11Z</time></trkpt>
<trkpt lat="50.580212" lon="5.206629"><time>2026-05-02T20:26:11Z</time></trkpt>
<trkpt lat="50.579790" lon="5.204977"><time>2026-05-02T20:36:11Z</time></trkpt>
<trkpt lat="50.578711" lon="5.203347"><time>2026-05-02T20:46:11Z</time></trkpt>
</trkseg>
</trk>
<trk>
<name>lvbwd17</name>
<cmt>s</cmt>
<desc>Warnant-Dreye Chemin n°17 </desc>
<link href="https://chemins.be/warnantdreye/chemin/17"/><trkseg>
<trkpt lat="50.596964" lon="5.196278"><time>2026-05-02T19:16:11Z</time></trkpt>
<trkpt lat="50.596114" lon="5.197883"><time>2026-05-02T19:26:11Z</time></trkpt>
<trkpt lat="50.595692" lon="5.199378"><time>2026-05-02T19:36:11Z</time></trkpt>
</trkseg></trk>
<trk>
<name>lvbwd17</name>
<cmt>q</cmt>
<desc>Warnant-Dreye Chemin n°17 </desc>
<link href="https://chemins.be/warnantdreye/chemin/17"/><trkseg>
<trkpt lat="50.595692" lon="5.199378"><time>2026-05-02T19:36:11Z</time></trkpt>
<trkpt lat="50.594676" lon="5.202973"><time>2026-05-02T19:46:11Z</time></trkpt>
</trkseg></trk>
<trk>
<name>lvbwd17</name>
<cmt>s</cmt>
<desc>Warnant-Dreye Chemin n°17 </desc>
<link href="https://chemins.be/warnantdreye/chemin/17"/><trkseg>
<trkpt lat="50.594676" lon="5.202973"><time>2026-05-02T19:46:11Z</time></trkpt>
<trkpt lat="50.592742" lon="5.205831"><time>2026-05-02T19:56:11Z</time></trkpt>
<trkpt lat="50.591794" lon="5.206372"><time>2026-05-02T20:06:11Z</time></trkpt>
<trkpt lat="50.591516" lon="5.206311"><time>2026-05-02T20:16:11Z</time></trkpt>
</trkseg>
</trk>
<trk>
<name>lvbwd18</name>
<cmt>v</cmt>
<desc>Warnant-Dreye Chemin n°18 </desc>
<link href="https://chemins.be/warnantdreye/chemin/18"/><trkseg>
<trkpt lat="50.604890" lon="5.207912"><time>2026-05-02T19:16:11Z</time></trkpt>
<trkpt lat="50.606127" lon="5.208985"><time>2026-05-02T19:26:11Z</time></trkpt>
<trkpt lat="50.607216" lon="5.207071"><time>2026-05-02T19:36:11Z</time></trkpt>
</trkseg>
</trk>
<trk>
<name>lvbwd19</name>
<cmt>v</cmt>
<desc>Warnant-Dreye Chemin n°19 </desc>
<link href="https://chemins.be/warnantdreye/chemin/19"/><trkseg>
<trkpt lat="50.595664" lon="5.199247"><time>2026-05-02T19:16:11Z</time></trkpt>
<trkpt lat="50.594191" lon="5.196686"><time>2026-05-02T19:26:11Z</time></trkpt>
<trkpt lat="50.593596" lon="5.195120"><time>2026-05-02T19:36:11Z</time></trkpt>
</trkseg>
</trk>
<trk>
<name>lvbwd2</name>
<cmt>v</cmt>
<desc>Warnant-Dreye Chemin n°2 </desc>
<link href="https://chemins.be/warnantdreye/chemin/2"/><trkseg>
<trkpt lat="50.592676" lon="5.231402"><time>2026-05-02T19:16:11Z</time></trkpt>
<trkpt lat="50.592094" lon="5.232366"><time>2026-05-02T19:26:11Z</time></trkpt>
</trkseg></trk>
<trk>
<name>lvbwd2</name>
<cmt>q</cmt>
<desc>Warnant-Dreye Chemin n°2 </desc>
<link href="https://chemins.be/warnantdreye/chemin/2"/><trkseg>
<trkpt lat="50.592094" lon="5.232366"><time>2026-05-02T19:26:11Z</time></trkpt>
<trkpt lat="50.590087" lon="5.235648"><time>2026-05-02T19:36:11Z</time></trkpt>
</trkseg></trk>
<trk>
<name>lvbwd2</name>
<cmt>v</cmt>
<desc>Warnant-Dreye Chemin n°2 </desc>
<link href="https://chemins.be/warnantdreye/chemin/2"/><trkseg>
<trkpt lat="50.590087" lon="5.235648"><time>2026-05-02T19:36:11Z</time></trkpt>
<trkpt lat="50.589379" lon="5.236661"><time>2026-05-02T19:46:11Z</time></trkpt>
<trkpt lat="50.589204" lon="5.237365"><time>2026-05-02T19:56:11Z</time></trkpt>
</trkseg>
</trk>
<trk>
<name>lvbwd20</name>
<cmt>v</cmt>
<desc>Warnant-Dreye Chemin n°20 </desc>
<link href="https://chemins.be/warnantdreye/chemin/20"/><trkseg>
<trkpt lat="50.600714" lon="5.199462"><time>2026-05-02T19:16:11Z</time></trkpt>
<trkpt lat="50.600987" lon="5.200857"><time>2026-05-02T19:26:11Z</time></trkpt>
<trkpt lat="50.601082" lon="5.202541"><time>2026-05-02T19:36:11Z</time></trkpt>
</trkseg>
</trk>
<trk>
<name>lvbwd21</name>
<cmt>r</cmt>
<desc>Warnant-Dreye Chemin n°21 Rue Bois Lhonneux</desc>
<link href="https://chemins.be/warnantdreye/chemin/21"/><trkseg>
<trkpt lat="50.597222" lon="5.219704"><time>2026-05-02T19:16:11Z</time></trkpt>
<trkpt lat="50.598029" lon="5.219945"><time>2026-05-02T19:26:11Z</time></trkpt>
</trkseg></trk>
<trk>
<name>lvbwd21</name>
<cmt>q</cmt>
<desc>Warnant-Dreye Chemin n°21 Rue Bois Lhonneux</desc>
<link href="https://chemins.be/warnantdreye/chemin/21"/><trkseg>
<trkpt lat="50.598029" lon="5.219945"><time>2026-05-02T19:26:11Z</time></trkpt>
<trkpt lat="50.598702" lon="5.220183"><time>2026-05-02T19:36:11Z</time></trkpt>
<trkpt lat="50.599970" lon="5.218864"><time>2026-05-02T19:46:11Z</time></trkpt>
<trkpt lat="50.600523" lon="5.218252"><time>2026-05-02T19:56:11Z</time></trkpt>
<trkpt lat="50.602522" lon="5.216551"><time>2026-05-02T20:06:11Z</time></trkpt>
</trkseg>
</trk>
<trk>
<name>lvbwd22</name>
<cmt>s</cmt>
<desc>Warnant-Dreye Chemin n°22 </desc>
<link href="https://chemins.be/warnantdreye/chemin/22"/><trkseg>
<trkpt lat="50.598619" lon="5.217936"><time>2026-05-02T19:16:11Z</time></trkpt>
<trkpt lat="50.599348" lon="5.217821"><time>2026-05-02T19:26:11Z</time></trkpt>
<trkpt lat="50.600370" lon="5.218207"><time>2026-05-02T19:36:11Z</time></trkpt>
</trkseg>
</trk>
<trk>
<name>lvbwd23</name>
<cmt>v</cmt>
<desc>Warnant-Dreye Chemin n°23 </desc>
<link href="https://chemins.be/warnantdreye/chemin/23"/><trkseg>
<trkpt lat="50.585811" lon="5.208794"><time>2026-05-02T19:16:11Z</time></trkpt>
<trkpt lat="50.585724" lon="5.208397"><time>2026-05-02T19:26:11Z</time></trkpt>
</trkseg>
</trk>
<trk>
<name>lvbwd24</name>
<cmt>v</cmt>
<desc>Warnant-Dreye Chemin n°24 </desc>
<link href="https://chemins.be/warnantdreye/chemin/24"/><trkseg>
<trkpt lat="50.604372" lon="5.199201"><time>2026-05-02T19:16:11Z</time></trkpt>
<trkpt lat="50.605577" lon="5.202518"><time>2026-05-02T19:26:11Z</time></trkpt>
<trkpt lat="50.607877" lon="5.208854"><time>2026-05-02T19:36:11Z</time></trkpt>
<trkpt lat="50.608236" lon="5.210502"><time>2026-05-02T19:46:11Z</time></trkpt>
</trkseg>
</trk>
<trk>
<name>lvbwd25</name>
<cmt>r</cmt>
<desc>Warnant-Dreye Chemin n°25 Rue Japin</desc>
<link href="https://chemins.be/warnantdreye/chemin/25"/><trkseg>
<trkpt lat="50.605424" lon="5.210075"><time>2026-05-02T19:16:11Z</time></trkpt>
<trkpt lat="50.606416" lon="5.210418"><time>2026-05-02T19:26:11Z</time></trkpt>
</trkseg></trk>
<trk>
<name>lvbwd25</name>
<cmt>q</cmt>
<desc>Warnant-Dreye Chemin n°25 Rue Japin</desc>
<link href="https://chemins.be/warnantdreye/chemin/25"/><trkseg>
<trkpt lat="50.606416" lon="5.210418"><time>2026-05-02T19:26:11Z</time></trkpt>
<trkpt lat="50.607811" lon="5.208940"><time>2026-05-02T19:36:11Z</time></trkpt>
</trkseg>
</trk>
<trk>
<name>lvbwd27</name>
<cmt>r</cmt>
<desc>Warnant-Dreye Chemin n°27 Rue Baccu</desc>
<link href="https://chemins.be/warnantdreye/chemin/27"/><trkseg>
<trkpt lat="50.594225" lon="5.222504"><time>2026-05-02T19:16:11Z</time></trkpt>
<trkpt lat="50.593883" lon="5.222142"><time>2026-05-02T19:26:11Z</time></trkpt>
<trkpt lat="50.593636" lon="5.222180"><time>2026-05-02T19:36:11Z</time></trkpt>
</trkseg></trk>
<trk>
<name>lvbwd27</name>
<cmt>d</cmt>
<desc>Warnant-Dreye Chemin n°27 Rue Baccu</desc>
<link href="https://chemins.be/warnantdreye/chemin/27"/><trkseg>
<trkpt lat="50.593636" lon="5.222180"><time>2026-05-02T19:36:11Z</time></trkpt>
<trkpt lat="50.593520" lon="5.222168"><time>2026-05-02T19:46:11Z</time></trkpt>
</trkseg></trk>
<trk>
<name>lvbwd27</name>
<cmt>q</cmt>
<desc>Warnant-Dreye Chemin n°27 Rue Baccu</desc>
<link href="https://chemins.be/warnantdreye/chemin/27"/><trkseg>
<trkpt lat="50.593520" lon="5.222168"><time>2026-05-02T19:46:11Z</time></trkpt>
<trkpt lat="50.588757" lon="5.221269"><time>2026-05-02T19:56:11Z</time></trkpt>
<trkpt lat="50.587490" lon="5.221236"><time>2026-05-02T20:06:11Z</time></trkpt>
<trkpt lat="50.586353" lon="5.220807"><time>2026-05-02T20:16:11Z</time></trkpt>
<trkpt lat="50.585549" lon="5.219316"><time>2026-05-02T20:26:11Z</time></trkpt>
</trkseg>
</trk>
<trk>
<name>lvbwd28</name>
<cmt>d</cmt>
<desc>Warnant-Dreye Chemin n°28 </desc>
<link href="https://chemins.be/warnantdreye/chemin/28"/><trkseg>
<trkpt lat="50.589823" lon="5.201774"><time>2026-05-02T19:16:11Z</time></trkpt>
<trkpt lat="50.590191" lon="5.200839"><time>2026-05-02T19:26:11Z</time></trkpt>
<trkpt lat="50.590464" lon="5.200663"><time>2026-05-02T19:36:11Z</time></trkpt>
<trkpt lat="50.591202" lon="5.199843"><time>2026-05-02T19:46:11Z</time></trkpt>
</trkseg>
</trk>
<trk>
<name>lvbwd29</name>
<cmt>d</cmt>
<desc>Warnant-Dreye Chemin n°29 </desc>
<link href="https://chemins.be/warnantdreye/chemin/29"/><trkseg>
<trkpt lat="50.595822" lon="5.226742"><time>2026-05-02T19:16:11Z</time></trkpt>
<trkpt lat="50.595198" lon="5.226024"><time>2026-05-02T19:26:11Z</time></trkpt>
<trkpt lat="50.594807" lon="5.225395"><time>2026-05-02T19:36:11Z</time></trkpt>
</trkseg>
</trk>
<trk>
<name>lvbwd29bis</name>
<cmt>q</cmt>
<desc>Warnant-Dreye Sentier n°29bis </desc>
<link href="https://chemins.be/warnantdreye/sentier/29bis"/><trkseg>
<trkpt lat="50.595197" lon="5.226038"><time>2026-05-02T19:16:11Z</time></trkpt>
<trkpt lat="50.594788" lon="5.226680"><time>2026-05-02T19:26:11Z</time></trkpt>
<trkpt lat="50.594644" lon="5.226777"><time>2026-05-02T19:36:11Z</time></trkpt>
</trkseg>
</trk>
<trk>
<name>lvbwd3</name>
<cmt>r</cmt>
<desc>Warnant-Dreye Chemin n°3 Rue Falihottes / Rue de Fize</desc>
<link href="https://chemins.be/warnantdreye/chemin/3"/><trkseg>
<trkpt lat="50.598495" lon="5.193041"><time>2026-05-02T19:16:11Z</time></trkpt>
<trkpt lat="50.598081" lon="5.194570"><time>2026-05-02T19:26:11Z</time></trkpt>
</trkseg></trk>
<trk>
<name>lvbwd3</name>
<cmt>v</cmt>
<desc>Warnant-Dreye Chemin n°3 Rue Falihottes / Rue de Fize</desc>
<link href="https://chemins.be/warnantdreye/chemin/3"/><trkseg>
<trkpt lat="50.598081" lon="5.194570"><time>2026-05-02T19:26:11Z</time></trkpt>
<trkpt lat="50.596954" lon="5.196250"><time>2026-05-02T19:36:11Z</time></trkpt>
</trkseg></trk>
<trk>
<name>lvbwd3</name>
<cmt>q</cmt>
<desc>Warnant-Dreye Chemin n°3 Rue Falihottes / Rue de Fize</desc>
<link href="https://chemins.be/warnantdreye/chemin/3"/><trkseg>
<trkpt lat="50.596954" lon="5.196250"><time>2026-05-02T19:36:11Z</time></trkpt>
<trkpt lat="50.597105" lon="5.197400"><time>2026-05-02T19:46:11Z</time></trkpt>
<trkpt lat="50.596507" lon="5.200942"><time>2026-05-02T19:56:11Z</time></trkpt>
<trkpt lat="50.596673" lon="5.202135"><time>2026-05-02T20:06:11Z</time></trkpt>
<trkpt lat="50.594882" lon="5.212438"><time>2026-05-02T20:16:11Z</time></trkpt>
<trkpt lat="50.594305" lon="5.214311"><time>2026-05-02T20:26:11Z</time></trkpt>
</trkseg></trk>
<trk>
<name>lvbwd3</name>
<cmt>r</cmt>
<desc>Warnant-Dreye Chemin n°3 Rue Falihottes / Rue de Fize</desc>
<link href="https://chemins.be/warnantdreye/chemin/3"/><trkseg>
<trkpt lat="50.594305" lon="5.214311"><time>2026-05-02T20:26:11Z</time></trkpt>
<trkpt lat="50.594446" lon="5.217965"><time>2026-05-02T20:36:11Z</time></trkpt>
<trkpt lat="50.594097" lon="5.219064"><time>2026-05-02T20:46:11Z</time></trkpt>
<trkpt lat="50.594443" lon="5.222269"><time>2026-05-02T20:56:11Z</time></trkpt>
<trkpt lat="50.594028" lon="5.222619"><time>2026-05-02T21:06:11Z</time></trkpt>
<trkpt lat="50.593613" lon="5.224293"><time>2026-05-02T21:16:11Z</time></trkpt>
<trkpt lat="50.592667" lon="5.227025"><time>2026-05-02T21:26:11Z</time></trkpt>
<trkpt lat="50.593037" lon="5.227316"><time>2026-05-02T21:36:11Z</time></trkpt>
<trkpt lat="50.592921" lon="5.228542"><time>2026-05-02T21:46:11Z</time></trkpt>
<trkpt lat="50.592933" lon="5.230799"><time>2026-05-02T21:56:11Z</time></trkpt>
<trkpt lat="50.592665" lon="5.231494"><time>2026-05-02T22:06:11Z</time></trkpt>
<trkpt lat="50.592736" lon="5.232086"><time>2026-05-02T22:16:11Z</time></trkpt>
<trkpt lat="50.593260" lon="5.233912"><time>2026-05-02T22:26:11Z</time></trkpt>
<trkpt lat="50.593295" lon="5.235283"><time>2026-05-02T22:36:11Z</time></trkpt>
<trkpt lat="50.592942" lon="5.238017"><time>2026-05-02T22:46:11Z</time></trkpt>
<trkpt lat="50.592929" lon="5.240898"><time>2026-05-02T22:56:11Z</time></trkpt>
<trkpt lat="50.592560" lon="5.246978"><time>2026-05-02T23:06:11Z</time></trkpt>
<trkpt lat="50.591850" lon="5.252911"><time>2026-05-02T23:16:11Z</time></trkpt>
<trkpt lat="50.591718" lon="5.257273"><time>2026-05-02T23:26:11Z</time></trkpt>
</trkseg>
</trk>
<trk>
<name>lvbwd31</name>
<cmt>r</cmt>
<desc>Warnant-Dreye Sentier n°31 Rue du Cimetière</desc>
<link href="https://chemins.be/warnantdreye/sentier/31"/><trkseg>
<trkpt lat="50.597264" lon="5.217544"><time>2026-05-02T19:16:11Z</time></trkpt>
<trkpt lat="50.598587" lon="5.214898"><time>2026-05-02T19:26:11Z</time></trkpt>
<trkpt lat="50.600183" lon="5.213019"><time>2026-05-02T19:36:11Z</time></trkpt>
<trkpt lat="50.600449" lon="5.212389"><time>2026-05-02T19:46:11Z</time></trkpt>
</trkseg></trk>
<trk>
<name>lvbwd31</name>
<cmt>q</cmt>
<desc>Warnant-Dreye Sentier n°31 Rue du Cimetière</desc>
<link href="https://chemins.be/warnantdreye/sentier/31"/><trkseg>
<trkpt lat="50.600449" lon="5.212389"><time>2026-05-02T19:46:11Z</time></trkpt>
<trkpt lat="50.600667" lon="5.211983"><time>2026-05-02T19:56:11Z</time></trkpt>
<trkpt lat="50.600520" lon="5.211161"><time>2026-05-02T20:06:11Z</time></trkpt>
<trkpt lat="50.600927" lon="5.210857"><time>2026-05-02T20:16:11Z</time></trkpt>
<trkpt lat="50.601999" lon="5.206893"><time>2026-05-02T20:26:11Z</time></trkpt>
<trkpt lat="50.601773" lon="5.205716"><time>2026-05-02T20:36:11Z</time></trkpt>
<trkpt lat="50.602205" lon="5.202584"><time>2026-05-02T20:46:11Z</time></trkpt>
<trkpt lat="50.602188" lon="5.201055"><time>2026-05-02T20:56:11Z</time></trkpt>
<trkpt lat="50.602171" lon="5.199591"><time>2026-05-02T21:06:11Z</time></trkpt>
</trkseg></trk>
<trk>
<name>lvbwd31</name>
<cmt>r</cmt>
<desc>Warnant-Dreye Sentier n°31 Rue du Cimetière</desc>
<link href="https://chemins.be/warnantdreye/sentier/31"/><trkseg>
<trkpt lat="50.602171" lon="5.199591"><time>2026-05-02T21:06:11Z</time></trkpt>
<trkpt lat="50.601790" lon="5.199473"><time>2026-05-02T21:16:11Z</time></trkpt>
<trkpt lat="50.601218" lon="5.199033"><time>2026-05-02T21:26:11Z</time></trkpt>
</trkseg></trk>
<trk>
<name>lvbwd31</name>
<cmt>q</cmt>
<desc>Warnant-Dreye Sentier n°31 Rue du Cimetière</desc>
<link href="https://chemins.be/warnantdreye/sentier/31"/><trkseg>
<trkpt lat="50.601218" lon="5.199033"><time>2026-05-02T21:26:11Z</time></trkpt>
<trkpt lat="50.601688" lon="5.198421"><time>2026-05-02T21:36:11Z</time></trkpt>
<trkpt lat="50.601613" lon="5.197531"><time>2026-05-02T21:46:11Z</time></trkpt>
<trkpt lat="50.602784" lon="5.194967"><time>2026-05-02T21:56:11Z</time></trkpt>
<trkpt lat="50.602571" lon="5.194361"><time>2026-05-02T22:06:11Z</time></trkpt>
<trkpt lat="50.602369" lon="5.193787"><time>2026-05-02T22:16:11Z</time></trkpt>
<trkpt lat="50.602178" lon="5.191952"><time>2026-05-02T22:26:11Z</time></trkpt>
</trkseg>
</trk>
<trk>
<name>lvbwd33</name>
<cmt>v</cmt>
<desc>Warnant-Dreye Sentier n°33 </desc>
<link href="https://chemins.be/warnantdreye/sentier/33"/><trkseg>
<trkpt lat="50.603986" lon="5.204314"><time>2026-05-02T19:16:11Z</time></trkpt>
<trkpt lat="50.604032" lon="5.204174"><time>2026-05-02T19:26:11Z</time></trkpt>
<trkpt lat="50.604169" lon="5.203823"><time>2026-05-02T19:36:11Z</time></trkpt>
<trkpt lat="50.604370" lon="5.203375"><time>2026-05-02T19:46:11Z</time></trkpt>
<trkpt lat="50.604470" lon="5.203235"><time>2026-05-02T19:56:11Z</time></trkpt>
<trkpt lat="50.604669" lon="5.203083"><time>2026-05-02T20:06:11Z</time></trkpt>
<trkpt lat="50.604877" lon="5.202946"><time>2026-05-02T20:16:11Z</time></trkpt>
<trkpt lat="50.605085" lon="5.202808"><time>2026-05-02T20:26:11Z</time></trkpt>
<trkpt lat="50.605365" lon="5.202658"><time>2026-05-02T20:36:11Z</time></trkpt>
<trkpt lat="50.605627" lon="5.202479"><time>2026-05-02T20:46:11Z</time></trkpt>
</trkseg>
</trk>
<trk>
<name>lvbwd34</name>
<cmt>q</cmt>
<desc>Warnant-Dreye Sentier n°34 </desc>
<link href="https://chemins.be/warnantdreye/sentier/34"/><trkseg>
<trkpt lat="50.583020" lon="5.219300"><time>2026-05-02T19:16:11Z</time></trkpt>
<trkpt lat="50.577701" lon="5.218471"><time>2026-05-02T19:26:11Z</time></trkpt>
</trkseg>
</trk>
<trk>
<name>lvbwd36</name>
<cmt>q</cmt>
<desc>Warnant-Dreye Sentier n°36 Rue du Tilleul</desc>
<link href="https://chemins.be/warnantdreye/sentier/36"/><trkseg>
<trkpt lat="50.592318" lon="5.217531"><time>2026-05-02T19:16:11Z</time></trkpt>
<trkpt lat="50.592059" lon="5.220450"><time>2026-05-02T19:26:11Z</time></trkpt>
<trkpt lat="50.591587" lon="5.221959"><time>2026-05-02T19:36:11Z</time></trkpt>
<trkpt lat="50.591691" lon="5.223153"><time>2026-05-02T19:46:11Z</time></trkpt>
<trkpt lat="50.591314" lon="5.224906"><time>2026-05-02T19:56:11Z</time></trkpt>
<trkpt lat="50.591559" lon="5.225363"><time>2026-05-02T20:06:11Z</time></trkpt>
</trkseg></trk>
<trk>
<name>lvbwd36</name>
<cmt>v</cmt>
<desc>Warnant-Dreye Sentier n°36 Rue du Tilleul</desc>
<link href="https://chemins.be/warnantdreye/sentier/36"/><trkseg>
<trkpt lat="50.591559" lon="5.225363"><time>2026-05-02T20:06:11Z</time></trkpt>
<trkpt lat="50.591233" lon="5.227181"><time>2026-05-02T20:16:11Z</time></trkpt>
<trkpt lat="50.591249" lon="5.227449"><time>2026-05-02T20:26:11Z</time></trkpt>
</trkseg></trk>
<trk>
<name>lvbwd36</name>
<cmt>r</cmt>
<desc>Warnant-Dreye Sentier n°36 Rue du Tilleul</desc>
<link href="https://chemins.be/warnantdreye/sentier/36"/><trkseg>
<trkpt lat="50.591249" lon="5.227449"><time>2026-05-02T20:26:11Z</time></trkpt>
<trkpt lat="50.590645" lon="5.227678"><time>2026-05-02T20:36:11Z</time></trkpt>
</trkseg></trk>
<trk>
<name>lvbwd36</name>
<cmt>q</cmt>
<desc>Warnant-Dreye Sentier n°36 Rue du Tilleul</desc>
<link href="https://chemins.be/warnantdreye/sentier/36"/><trkseg>
<trkpt lat="50.590645" lon="5.227678"><time>2026-05-02T20:36:11Z</time></trkpt>
<trkpt lat="50.590748" lon="5.229559"><time>2026-05-02T20:46:11Z</time></trkpt>
<trkpt lat="50.590539" lon="5.231052"><time>2026-05-02T20:56:11Z</time></trkpt>
<trkpt lat="50.590247" lon="5.231725"><time>2026-05-02T21:06:11Z</time></trkpt>
<trkpt lat="50.588941" lon="5.233240"><time>2026-05-02T21:16:11Z</time></trkpt>
</trkseg></trk>
<trk>
<name>lvbwd36</name>
<cmt>s</cmt>
<desc>Warnant-Dreye Sentier n°36 Rue du Tilleul</desc>
<link href="https://chemins.be/warnantdreye/sentier/36"/><trkseg>
<trkpt lat="50.588941" lon="5.233240"><time>2026-05-02T21:16:11Z</time></trkpt>
<trkpt lat="50.588164" lon="5.235214"><time>2026-05-02T21:26:11Z</time></trkpt>
</trkseg></trk>
<trk>
<name>lvbwd36</name>
<cmt>q</cmt>
<desc>Warnant-Dreye Sentier n°36 Rue du Tilleul</desc>
<link href="https://chemins.be/warnantdreye/sentier/36"/><trkseg>
<trkpt lat="50.588164" lon="5.235214"><time>2026-05-02T21:26:11Z</time></trkpt>
<trkpt lat="50.587126" lon="5.237853"><time>2026-05-02T21:36:11Z</time></trkpt>
</trkseg>
</trk>
<trk>
<name>lvbwd37</name>
<cmt>s</cmt>
<desc>Warnant-Dreye Sentier n°37 Rue Haute Cotaie</desc>
<link href="https://chemins.be/warnantdreye/sentier/37"/><trkseg>
<trkpt lat="50.595104" lon="5.227788"><time>2026-05-02T19:16:11Z</time></trkpt>
<trkpt lat="50.595112" lon="5.229130"><time>2026-05-02T19:26:11Z</time></trkpt>
</trkseg></trk>
<trk>
<name>lvbwd37</name>
<cmt>q</cmt>
<desc>Warnant-Dreye Sentier n°37 Rue Haute Cotaie</desc>
<link href="https://chemins.be/warnantdreye/sentier/37"/><trkseg>
<trkpt lat="50.595112" lon="5.229130"><time>2026-05-02T19:26:11Z</time></trkpt>
<trkpt lat="50.595058" lon="5.234002"><time>2026-05-02T19:36:11Z</time></trkpt>
<trkpt lat="50.595275" lon="5.234774"><time>2026-05-02T19:46:11Z</time></trkpt>
</trkseg></trk>
<trk>
<name>lvbwd37</name>
<cmt>r</cmt>
<desc>Warnant-Dreye Sentier n°37 Rue Haute Cotaie</desc>
<link href="https://chemins.be/warnantdreye/sentier/37"/><trkseg>
<trkpt lat="50.595275" lon="5.234774"><time>2026-05-02T19:46:11Z</time></trkpt>
<trkpt lat="50.595534" lon="5.235651"><time>2026-05-02T19:56:11Z</time></trkpt>
</trkseg></trk>
<trk>
<name>lvbwd37</name>
<cmt>q</cmt>
<desc>Warnant-Dreye Sentier n°37 Rue Haute Cotaie</desc>
<link href="https://chemins.be/warnantdreye/sentier/37"/><trkseg>
<trkpt lat="50.595534" lon="5.235651"><time>2026-05-02T19:56:11Z</time></trkpt>
<trkpt lat="50.595139" lon="5.237174"><time>2026-05-02T20:06:11Z</time></trkpt>
<trkpt lat="50.594118" lon="5.238848"><time>2026-05-02T20:16:11Z</time></trkpt>
<trkpt lat="50.592928" lon="5.239084"><time>2026-05-02T20:26:11Z</time></trkpt>
</trkseg>
</trk>
<trk>
<name>lvbwd38</name>
<cmt>q</cmt>
<desc>Warnant-Dreye Sentier n°38 </desc>
<link href="https://chemins.be/warnantdreye/sentier/38"/><trkseg>
<trkpt lat="50.596549" lon="5.232942"><time>2026-05-02T19:16:11Z</time></trkpt>
<trkpt lat="50.596310" lon="5.232429"><time>2026-05-02T19:26:11Z</time></trkpt>
<trkpt lat="50.595940" lon="5.232634"><time>2026-05-02T19:36:11Z</time></trkpt>
<trkpt lat="50.595081" lon="5.230881"><time>2026-05-02T19:46:11Z</time></trkpt>
</trkseg>
</trk>
<trk>
<name>lvbwd39</name>
<cmt>q</cmt>
<desc>Warnant-Dreye Chemin n°39 </desc>
<link href="https://chemins.be/warnantdreye/chemin/39"/><trkseg>
<trkpt lat="50.605996" lon="5.210367"><time>2026-05-02T19:16:11Z</time></trkpt>
<trkpt lat="50.606661" lon="5.211242"><time>2026-05-02T19:26:11Z</time></trkpt>
<trkpt lat="50.606541" lon="5.211817"><time>2026-05-02T19:36:11Z</time></trkpt>
<trkpt lat="50.607827" lon="5.214684"><time>2026-05-02T19:46:11Z</time></trkpt>
</trkseg>
</trk>
<trk>
<name>lvbwd40</name>
<cmt>q</cmt>
<desc>Warnant-Dreye Sentier n°40 </desc>
<link href="https://chemins.be/warnantdreye/sentier/40"/><trkseg>
<trkpt lat="50.596735" lon="5.223523"><time>2026-05-02T19:16:11Z</time></trkpt>
<trkpt lat="50.597156" lon="5.222571"><time>2026-05-02T19:26:11Z</time></trkpt>
</trkseg></trk>
<trk>
<name>lvbwd40</name>
<cmt>v</cmt>
<desc>Warnant-Dreye Sentier n°40 </desc>
<link href="https://chemins.be/warnantdreye/sentier/40"/><trkseg>
<trkpt lat="50.597156" lon="5.222571"><time>2026-05-02T19:26:11Z</time></trkpt>
<trkpt lat="50.597352" lon="5.222758"><time>2026-05-02T19:36:11Z</time></trkpt>
</trkseg></trk>
<trk>
<name>lvbwd40</name>
<cmt>q</cmt>
<desc>Warnant-Dreye Sentier n°40 </desc>
<link href="https://chemins.be/warnantdreye/sentier/40"/><trkseg>
<trkpt lat="50.597352" lon="5.222758"><time>2026-05-02T19:36:11Z</time></trkpt>
<trkpt lat="50.598557" lon="5.220265"><time>2026-05-02T19:46:11Z</time></trkpt>
</trkseg>
</trk>
<trk>
<name>lvbwd41</name>
<cmt>v</cmt>
<desc>Warnant-Dreye Sentier n°41 </desc>
<link href="https://chemins.be/warnantdreye/sentier/41"/><trkseg>
<trkpt lat="50.596719" lon="5.222100"><time>2026-05-02T19:16:11Z</time></trkpt>
<trkpt lat="50.597192" lon="5.222557"><time>2026-05-02T19:26:11Z</time></trkpt>
<trkpt lat="50.597406" lon="5.222801"><time>2026-05-02T19:36:11Z</time></trkpt>
</trkseg></trk>
<trk>
<name>lvbwd41</name>
<cmt>d</cmt>
<desc>Warnant-Dreye Sentier n°41 </desc>
<link href="https://chemins.be/warnantdreye/sentier/41"/><trkseg>
<trkpt lat="50.597406" lon="5.222801"><time>2026-05-02T19:36:11Z</time></trkpt>
<trkpt lat="50.598497" lon="5.223612"><time>2026-05-02T19:46:11Z</time></trkpt>
<trkpt lat="50.598587" lon="5.223571"><time>2026-05-02T19:56:11Z</time></trkpt>
<trkpt lat="50.598818" lon="5.223801"><time>2026-05-02T20:06:11Z</time></trkpt>
</trkseg></trk>
<trk>
<name>lvbwd41</name>
<cmt>b</cmt>
<desc>Warnant-Dreye Sentier n°41 </desc>
<link href="https://chemins.be/warnantdreye/sentier/41"/><trkseg>
<trkpt lat="50.598818" lon="5.223801"><time>2026-05-02T20:06:11Z</time></trkpt>
<trkpt lat="50.599184" lon="5.224200"><time>2026-05-02T20:16:11Z</time></trkpt>
</trkseg></trk>
<trk>
<name>lvbwd41</name>
<cmt>q</cmt>
<desc>Warnant-Dreye Sentier n°41 </desc>
<link href="https://chemins.be/warnantdreye/sentier/41"/><trkseg>
<trkpt lat="50.599184" lon="5.224200"><time>2026-05-02T20:16:11Z</time></trkpt>
<trkpt lat="50.599801" lon="5.224751"><time>2026-05-02T20:26:11Z</time></trkpt>
<trkpt lat="50.602952" lon="5.225374"><time>2026-05-02T20:36:11Z</time></trkpt>
</trkseg>
</trk>
<trk>
<name>lvbwd42</name>
<cmt>q</cmt>
<desc>Warnant-Dreye Sentier n°42 </desc>
<link href="https://chemins.be/warnantdreye/sentier/42"/><trkseg>
<trkpt lat="50.599183" lon="5.228173"><time>2026-05-02T19:16:11Z</time></trkpt>
<trkpt lat="50.600834" lon="5.229785"><time>2026-05-02T19:26:11Z</time></trkpt>
<trkpt lat="50.601284" lon="5.230980"><time>2026-05-02T19:36:11Z</time></trkpt>
</trkseg>
</trk>
<trk>
<name>lvbwd43</name>
<cmt>q</cmt>
<desc>Warnant-Dreye Sentier n°43 </desc>
<link href="https://chemins.be/warnantdreye/sentier/43"/><trkseg>
<trkpt lat="50.596144" lon="5.229332"><time>2026-05-02T19:16:11Z</time></trkpt>
<trkpt lat="50.597042" lon="5.228332"><time>2026-05-02T19:26:11Z</time></trkpt>
<trkpt lat="50.598335" lon="5.230954"><time>2026-05-02T19:36:11Z</time></trkpt>
<trkpt lat="50.600551" lon="5.234046"><time>2026-05-02T19:46:11Z</time></trkpt>
<trkpt lat="50.601417" lon="5.234782"><time>2026-05-02T19:56:11Z</time></trkpt>
</trkseg>
</trk>
<trk>
<name>lvbwd44</name>
<cmt>q</cmt>
<desc>Warnant-Dreye Sentier n°44 </desc>
<link href="https://chemins.be/warnantdreye/sentier/44"/><trkseg>
<trkpt lat="50.597889" lon="5.225621"><time>2026-05-02T19:16:11Z</time></trkpt>
<trkpt lat="50.597168" lon="5.227063"><time>2026-05-02T19:26:11Z</time></trkpt>
<trkpt lat="50.597033" lon="5.228247"><time>2026-05-02T19:36:11Z</time></trkpt>
</trkseg>
</trk>
<trk>
<name>lvbwd45</name>
<cmt>q</cmt>
<desc>Warnant-Dreye Sentier n°45 </desc>
<link href="https://chemins.be/warnantdreye/sentier/45"/><trkseg>
<trkpt lat="50.597060" lon="5.228304"><time>2026-05-02T19:16:11Z</time></trkpt>
<trkpt lat="50.598491" lon="5.226818"><time>2026-05-02T19:26:11Z</time></trkpt>
<trkpt lat="50.599657" lon="5.224749"><time>2026-05-02T19:36:11Z</time></trkpt>
</trkseg>
</trk>
<trk>
<name>lvbwd46</name>
<cmt>q</cmt>
<desc>Warnant-Dreye Sentier n°46 Rue Wérihet</desc>
<link href="https://chemins.be/warnantdreye/sentier/46"/><trkseg>
<trkpt lat="50.594508" lon="5.226831"><time>2026-05-02T19:16:11Z</time></trkpt>
<trkpt lat="50.594843" lon="5.225368"><time>2026-05-02T19:26:11Z</time></trkpt>
</trkseg></trk>
<trk>
<name>lvbwd46</name>
<cmt>v</cmt>
<desc>Warnant-Dreye Sentier n°46 Rue Wérihet</desc>
<link href="https://chemins.be/warnantdreye/sentier/46"/><trkseg>
<trkpt lat="50.594843" lon="5.225368"><time>2026-05-02T19:26:11Z</time></trkpt>
<trkpt lat="50.594718" lon="5.223925"><time>2026-05-02T19:36:11Z</time></trkpt>
</trkseg></trk>
<trk>
<name>lvbwd46</name>
<cmt>r</cmt>
<desc>Warnant-Dreye Sentier n°46 Rue Wérihet</desc>
<link href="https://chemins.be/warnantdreye/sentier/46"/><trkseg>
<trkpt lat="50.594718" lon="5.223925"><time>2026-05-02T19:36:11Z</time></trkpt>
<trkpt lat="50.594585" lon="5.222439"><time>2026-05-02T19:46:11Z</time></trkpt>
</trkseg>
</trk>
<trk>
<name>lvbwd47</name>
<cmt>v</cmt>
<desc>Warnant-Dreye Sentier n°47 </desc>
<link href="https://chemins.be/warnantdreye/sentier/47"/><trkseg>
<trkpt lat="50.594789" lon="5.225367"><time>2026-05-02T19:16:11Z</time></trkpt>
<trkpt lat="50.594567" lon="5.224925"><time>2026-05-02T19:26:11Z</time></trkpt>
<trkpt lat="50.594379" lon="5.224809"><time>2026-05-02T19:36:11Z</time></trkpt>
<trkpt lat="50.593694" lon="5.224398"><time>2026-05-02T19:46:11Z</time></trkpt>
</trkseg></trk>
<trk>
<name>lvbwd47</name>
<cmt>r</cmt>
<desc>Warnant-Dreye Sentier n°47 </desc>
<link href="https://chemins.be/warnantdreye/sentier/47"/><trkseg>
<trkpt lat="50.593694" lon="5.224398"><time>2026-05-02T19:46:11Z</time></trkpt>
<trkpt lat="50.593752" lon="5.223495"><time>2026-05-02T19:56:11Z</time></trkpt>
</trkseg></trk>
<trk>
<name>lvbwd47</name>
<cmt>q</cmt>
<desc>Warnant-Dreye Sentier n°47 </desc>
<link href="https://chemins.be/warnantdreye/sentier/47"/><trkseg>
<trkpt lat="50.593752" lon="5.223495"><time>2026-05-02T19:56:11Z</time></trkpt>
<trkpt lat="50.592963" lon="5.222967"><time>2026-05-02T20:06:11Z</time></trkpt>
<trkpt lat="50.591973" lon="5.221902"><time>2026-05-02T20:16:11Z</time></trkpt>
</trkseg>
</trk>
<trk>
<name>lvbwd48</name>
<cmt>v</cmt>
<desc>Warnant-Dreye Sentier n°48 </desc>
<link href="https://chemins.be/warnantdreye/sentier/48"/><trkseg>
<trkpt lat="50.593371" lon="5.227488"><time>2026-05-02T19:16:11Z</time></trkpt>
<trkpt lat="50.593490" lon="5.227109"><time>2026-05-02T19:26:11Z</time></trkpt>
<trkpt lat="50.593907" lon="5.226693"><time>2026-05-02T19:36:11Z</time></trkpt>
<trkpt lat="50.594334" lon="5.226107"><time>2026-05-02T19:46:11Z</time></trkpt>
<trkpt lat="50.594834" lon="5.225396"><time>2026-05-02T19:56:11Z</time></trkpt>
<trkpt lat="50.595553" lon="5.224180"><time>2026-05-02T20:06:11Z</time></trkpt>
<trkpt lat="50.595893" lon="5.223070"><time>2026-05-02T20:16:11Z</time></trkpt>
<trkpt lat="50.596283" lon="5.222668"><time>2026-05-02T20:26:11Z</time></trkpt>
</trkseg>
</trk>
<trk>
<name>lvbwd49</name>
<cmt>v</cmt>
<desc>Warnant-Dreye Sentier n°49 </desc>
<link href="https://chemins.be/warnantdreye/sentier/49"/><trkseg>
<trkpt lat="50.594581" lon="5.226747"><time>2026-05-02T19:16:11Z</time></trkpt>
<trkpt lat="50.594517" lon="5.226817"><time>2026-05-02T19:26:11Z</time></trkpt>
</trkseg></trk>
<trk>
<name>lvbwd49</name>
<cmt>q</cmt>
<desc>Warnant-Dreye Sentier n°49 </desc>
<link href="https://chemins.be/warnantdreye/sentier/49"/><trkseg>
<trkpt lat="50.594517" lon="5.226817"><time>2026-05-02T19:26:11Z</time></trkpt>
<trkpt lat="50.594409" lon="5.226942"><time>2026-05-02T19:36:11Z</time></trkpt>
<trkpt lat="50.593961" lon="5.226665"><time>2026-05-02T19:46:11Z</time></trkpt>
</trkseg>
</trk>
<trk>
<name>lvbwd5</name>
<cmt>q</cmt>
<desc>Warnant-Dreye Chemin n°5 Rue de la Prale</desc>
<link href="https://chemins.be/warnantdreye/chemin/5"/><trkseg>
<trkpt lat="50.583958" lon="5.219510"><time>2026-05-02T19:16:11Z</time></trkpt>
<trkpt lat="50.585070" lon="5.225844"><time>2026-05-02T19:26:11Z</time></trkpt>
<trkpt lat="50.586258" lon="5.229741"><time>2026-05-02T19:36:11Z</time></trkpt>
<trkpt lat="50.587010" lon="5.230994"><time>2026-05-02T19:46:11Z</time></trkpt>
<trkpt lat="50.587969" lon="5.234805"><time>2026-05-02T19:56:11Z</time></trkpt>
<trkpt lat="50.588121" lon="5.236590"><time>2026-05-02T20:06:11Z</time></trkpt>
<trkpt lat="50.588441" lon="5.237116"><time>2026-05-02T20:16:11Z</time></trkpt>
</trkseg></trk>
<trk>
<name>lvbwd5</name>
<cmt>v</cmt>
<desc>Warnant-Dreye Chemin n°5 Rue de la Prale</desc>
<link href="https://chemins.be/warnantdreye/chemin/5"/><trkseg>
<trkpt lat="50.588441" lon="5.237116"><time>2026-05-02T20:16:11Z</time></trkpt>
<trkpt lat="50.588523" lon="5.237627"><time>2026-05-02T20:26:11Z</time></trkpt>
</trkseg></trk>
<trk>
<name>lvbwd5</name>
<cmt>r</cmt>
<desc>Warnant-Dreye Chemin n°5 Rue de la Prale</desc>
<link href="https://chemins.be/warnantdreye/chemin/5"/><trkseg>
<trkpt lat="50.588523" lon="5.237627"><time>2026-05-02T20:26:11Z</time></trkpt>
<trkpt lat="50.589185" lon="5.237472"><time>2026-05-02T20:36:11Z</time></trkpt>
</trkseg></trk>
<trk>
<name>lvbwd5</name>
<cmt>v</cmt>
<desc>Warnant-Dreye Chemin n°5 Rue de la Prale</desc>
<link href="https://chemins.be/warnantdreye/chemin/5"/><trkseg>
<trkpt lat="50.589185" lon="5.237472"><time>2026-05-02T20:36:11Z</time></trkpt>
<trkpt lat="50.589135" lon="5.238341"><time>2026-05-02T20:46:11Z</time></trkpt>
</trkseg></trk>
<trk>
<name>lvbwd5</name>
<cmt>s</cmt>
<desc>Warnant-Dreye Chemin n°5 Rue de la Prale</desc>
<link href="https://chemins.be/warnantdreye/chemin/5"/><trkseg>
<trkpt lat="50.589135" lon="5.238341"><time>2026-05-02T20:46:11Z</time></trkpt>
<trkpt lat="50.592661" lon="5.246740"><time>2026-05-02T20:56:11Z</time></trkpt>
<trkpt lat="50.594577" lon="5.253683"><time>2026-05-02T21:06:11Z</time></trkpt>
</trkseg>
</trk>
<trk>
<name>lvbwd50</name>
<cmt>q</cmt>
<desc>Warnant-Dreye Sentier n°50 </desc>
<link href="https://chemins.be/warnantdreye/sentier/50"/><trkseg>
<trkpt lat="50.595552" lon="5.224251"><time>2026-05-02T19:16:11Z</time></trkpt>
<trkpt lat="50.595587" lon="5.224350"><time>2026-05-02T19:26:11Z</time></trkpt>
<trkpt lat="50.595785" lon="5.224326"><time>2026-05-02T19:36:11Z</time></trkpt>
<trkpt lat="50.596189" lon="5.224474"><time>2026-05-02T19:46:11Z</time></trkpt>
<trkpt lat="50.596394" lon="5.223517"><time>2026-05-02T19:56:11Z</time></trkpt>
<trkpt lat="50.596557" lon="5.223294"><time>2026-05-02T20:06:11Z</time></trkpt>
</trkseg>
</trk>
<trk>
<name>lvbwd51</name>
<cmt>q</cmt>
<desc>Warnant-Dreye Sentier n°51 </desc>
<link href="https://chemins.be/warnantdreye/sentier/51"/><trkseg>
<trkpt lat="50.596571" lon="5.225117"><time>2026-05-02T19:16:11Z</time></trkpt>
<trkpt lat="50.596205" lon="5.224729"><time>2026-05-02T19:26:11Z</time></trkpt>
<trkpt lat="50.596198" lon="5.224502"><time>2026-05-02T19:36:11Z</time></trkpt>
</trkseg>
</trk>
<trk>
<name>lvbwd54</name>
<cmt>q</cmt>
<desc>Warnant-Dreye Sentier n°54 </desc>
<link href="https://chemins.be/warnantdreye/sentier/54"/><trkseg>
<trkpt lat="50.602171" lon="5.199591"><time>2026-05-02T19:16:11Z</time></trkpt>
<trkpt lat="50.601957" lon="5.200052"><time>2026-05-02T19:26:11Z</time></trkpt>
<trkpt lat="50.602182" lon="5.201055"><time>2026-05-02T19:36:11Z</time></trkpt>
</trkseg>
</trk>
<trk>
<name>lvbwd55</name>
<cmt>q</cmt>
<desc>Warnant-Dreye Sentier n°55 </desc>
<link href="https://chemins.be/warnantdreye/sentier/55"/><trkseg>
<trkpt lat="50.596708" lon="5.231548"><time>2026-05-02T19:16:11Z</time></trkpt>
<trkpt lat="50.596691" lon="5.231711"><time>2026-05-02T19:26:11Z</time></trkpt>
<trkpt lat="50.597208" lon="5.232672"><time>2026-05-02T19:36:11Z</time></trkpt>
</trkseg>
</trk>
<trk>
<name>lvbwd57</name>
<cmt>q</cmt>
<desc>Warnant-Dreye Sentier n°57 </desc>
<link href="https://chemins.be/warnantdreye/sentier/57"/><trkseg>
<trkpt lat="50.589924" lon="5.227471"><time>2026-05-02T19:16:11Z</time></trkpt>
<trkpt lat="50.587822" lon="5.228740"><time>2026-05-02T19:26:11Z</time></trkpt>
</trkseg></trk>
<trk>
<name>lvbwd57</name>
<cmt>s</cmt>
<desc>Warnant-Dreye Sentier n°57 </desc>
<link href="https://chemins.be/warnantdreye/sentier/57"/><trkseg>
<trkpt lat="50.587822" lon="5.228740"><time>2026-05-02T19:26:11Z</time></trkpt>
<trkpt lat="50.587222" lon="5.229102"><time>2026-05-02T19:36:11Z</time></trkpt>
<trkpt lat="50.586240" lon="5.229694"><time>2026-05-02T19:46:11Z</time></trkpt>
</trkseg>
</trk>
<trk>
<name>lvbwd6</name>
<cmt>s</cmt>
<desc>Warnant-Dreye Chemin n°6 </desc>
<link href="https://chemins.be/warnantdreye/chemin/6"/><trkseg>
<trkpt lat="50.595468" lon="5.235648"><time>2026-05-02T19:16:11Z</time></trkpt>
<trkpt lat="50.593160" lon="5.236524"><time>2026-05-02T19:26:11Z</time></trkpt>
<trkpt lat="50.588935" lon="5.237562"><time>2026-05-02T19:36:11Z</time></trkpt>
<trkpt lat="50.588413" lon="5.237679"><time>2026-05-02T19:46:11Z</time></trkpt>
</trkseg></trk>
<trk>
<name>lvbwd6</name>
<cmt>v</cmt>
<desc>Warnant-Dreye Chemin n°6 </desc>
<link href="https://chemins.be/warnantdreye/chemin/6"/><trkseg>
<trkpt lat="50.588413" lon="5.237679"><time>2026-05-02T19:46:11Z</time></trkpt>
<trkpt lat="50.587856" lon="5.237683"><time>2026-05-02T19:56:11Z</time></trkpt>
</trkseg></trk>
<trk>
<name>lvbwd6</name>
<cmt>s</cmt>
<desc>Warnant-Dreye Chemin n°6 </desc>
<link href="https://chemins.be/warnantdreye/chemin/6"/><trkseg>
<trkpt lat="50.587856" lon="5.237683"><time>2026-05-02T19:56:11Z</time></trkpt>
<trkpt lat="50.583254" lon="5.238643"><time>2026-05-02T20:06:11Z</time></trkpt>
<trkpt lat="50.582351" lon="5.238048"><time>2026-05-02T20:16:11Z</time></trkpt>
</trkseg>
</trk>
<trk>
<name>lvbwd7</name>
<cmt>v</cmt>
<desc>Warnant-Dreye Chemin n°7 </desc>
<link href="https://chemins.be/warnantdreye/chemin/7"/><trkseg>
<trkpt lat="50.589919" lon="5.227445"><time>2026-05-02T19:16:11Z</time></trkpt>
<trkpt lat="50.587511" lon="5.226445"><time>2026-05-02T19:26:11Z</time></trkpt>
</trkseg></trk>
<trk>
<name>lvbwd7</name>
<cmt>s</cmt>
<desc>Warnant-Dreye Chemin n°7 </desc>
<link href="https://chemins.be/warnantdreye/chemin/7"/><trkseg>
<trkpt lat="50.587511" lon="5.226445"><time>2026-05-02T19:26:11Z</time></trkpt>
<trkpt lat="50.586622" lon="5.226441"><time>2026-05-02T19:36:11Z</time></trkpt>
</trkseg></trk>
<trk>
<name>lvbwd7</name>
<cmt>q</cmt>
<desc>Warnant-Dreye Chemin n°7 </desc>
<link href="https://chemins.be/warnantdreye/chemin/7"/><trkseg>
<trkpt lat="50.586622" lon="5.226441"><time>2026-05-02T19:36:11Z</time></trkpt>
<trkpt lat="50.585069" lon="5.225806"><time>2026-05-02T19:46:11Z</time></trkpt>
<trkpt lat="50.583303" lon="5.226973"><time>2026-05-02T19:56:11Z</time></trkpt>
</trkseg>
</trk>
<trk>
<name>lvbwd8</name>
<cmt>q</cmt>
<desc>Warnant-Dreye Chemin n°8 Tiege de Clokon / Thiers Pirka</desc>
<link href="https://chemins.be/warnantdreye/chemin/8"/><trkseg>
<trkpt lat="50.599280" lon="5.252457"><time>2026-05-02T19:16:11Z</time></trkpt>
<trkpt lat="50.598998" lon="5.251689"><time>2026-05-02T19:26:11Z</time></trkpt>
</trkseg></trk>
<trk>
<name>lvbwd8</name>
<cmt>v</cmt>
<desc>Warnant-Dreye Chemin n°8 Tiege de Clokon / Thiers Pirka</desc>
<link href="https://chemins.be/warnantdreye/chemin/8"/><trkseg>
<trkpt lat="50.598998" lon="5.251689"><time>2026-05-02T19:26:11Z</time></trkpt>
<trkpt lat="50.598293" lon="5.249741"><time>2026-05-02T19:36:11Z</time></trkpt>
<trkpt lat="50.598556" lon="5.249463"><time>2026-05-02T19:46:11Z</time></trkpt>
<trkpt lat="50.597715" lon="5.247710"><time>2026-05-02T19:56:11Z</time></trkpt>
</trkseg></trk>
<trk>
<name>lvbwd8</name>
<cmt>r</cmt>
<desc>Warnant-Dreye Chemin n°8 Tiege de Clokon / Thiers Pirka</desc>
<link href="https://chemins.be/warnantdreye/chemin/8"/><trkseg>
<trkpt lat="50.597715" lon="5.247710"><time>2026-05-02T19:56:11Z</time></trkpt>
<trkpt lat="50.596737" lon="5.246336"><time>2026-05-02T20:06:11Z</time></trkpt>
<trkpt lat="50.595784" lon="5.242674"><time>2026-05-02T20:16:11Z</time></trkpt>
<trkpt lat="50.595487" lon="5.239066"><time>2026-05-02T20:26:11Z</time></trkpt>
<trkpt lat="50.595566" lon="5.235734"><time>2026-05-02T20:36:11Z</time></trkpt>
<trkpt lat="50.595285" lon="5.234811"><time>2026-05-02T20:46:11Z</time></trkpt>
<trkpt lat="50.596090" lon="5.234247"><time>2026-05-02T20:56:11Z</time></trkpt>
<trkpt lat="50.596352" lon="5.233997"><time>2026-05-02T21:06:11Z</time></trkpt>
<trkpt lat="50.596654" lon="5.233367"><time>2026-05-02T21:16:11Z</time></trkpt>
<trkpt lat="50.596585" lon="5.232942"><time>2026-05-02T21:26:11Z</time></trkpt>
<trkpt lat="50.596694" lon="5.232775"><time>2026-05-02T21:36:11Z</time></trkpt>
<trkpt lat="50.596829" lon="5.232763"><time>2026-05-02T21:46:11Z</time></trkpt>
<trkpt lat="50.597053" lon="5.232866"><time>2026-05-02T21:56:11Z</time></trkpt>
<trkpt lat="50.597504" lon="5.232719"><time>2026-05-02T22:06:11Z</time></trkpt>
<trkpt lat="50.598426" lon="5.230815"><time>2026-05-02T22:16:11Z</time></trkpt>
<trkpt lat="50.599128" lon="5.228214"><time>2026-05-02T22:26:11Z</time></trkpt>
<trkpt lat="50.599676" lon="5.227052"><time>2026-05-02T22:36:11Z</time></trkpt>
</trkseg></trk>
<trk>
<name>lvbwd8</name>
<cmt>s</cmt>
<desc>Warnant-Dreye Chemin n°8 Tiege de Clokon / Thiers Pirka</desc>
<link href="https://chemins.be/warnantdreye/chemin/8"/><trkseg>
<trkpt lat="50.599676" lon="5.227052"><time>2026-05-02T22:36:11Z</time></trkpt>
<trkpt lat="50.599811" lon="5.224653"><time>2026-05-02T22:46:11Z</time></trkpt>
<trkpt lat="50.600310" lon="5.222811"><time>2026-05-02T22:56:11Z</time></trkpt>
</trkseg>
</trk>
<trk>
<name>lvbwd9</name>
<cmt>r</cmt>
<desc>Warnant-Dreye Chemin n°9 Rue d'Oultremont / A la Tombe</desc>
<link href="https://chemins.be/warnantdreye/chemin/9"/><trkseg>
<trkpt lat="50.603265" lon="5.224461"><time>2026-05-02T19:16:11Z</time></trkpt>
<trkpt lat="50.601507" lon="5.221434"><time>2026-05-02T19:26:11Z</time></trkpt>
<trkpt lat="50.599783" lon="5.218578"><time>2026-05-02T19:36:11Z</time></trkpt>
<trkpt lat="50.598537" lon="5.218075"><time>2026-05-02T19:46:11Z</time></trkpt>
<trkpt lat="50.594472" lon="5.216999"><time>2026-05-02T19:56:11Z</time></trkpt>
<trkpt lat="50.594332" lon="5.218932"><time>2026-05-02T20:06:11Z</time></trkpt>
<trkpt lat="50.593215" lon="5.218255"><time>2026-05-02T20:16:11Z</time></trkpt>
</trkseg></trk>
<trk>
<name>lvbwd9</name>
<cmt>q</cmt>
<desc>Warnant-Dreye Chemin n°9 Rue d'Oultremont / A la Tombe</desc>
<link href="https://chemins.be/warnantdreye/chemin/9"/><trkseg>
<trkpt lat="50.593215" lon="5.218255"><time>2026-05-02T20:16:11Z</time></trkpt>
<trkpt lat="50.592301" lon="5.217594"><time>2026-05-02T20:26:11Z</time></trkpt>
<trkpt lat="50.591371" lon="5.218215"><time>2026-05-02T20:36:11Z</time></trkpt>
<trkpt lat="50.588130" lon="5.218792"><time>2026-05-02T20:46:11Z</time></trkpt>
</trkseg></trk>
<trk>
<name>lvbwd9</name>
<cmt>s</cmt>
<desc>Warnant-Dreye Chemin n°9 Rue d'Oultremont / A la Tombe</desc>
<link href="https://chemins.be/warnantdreye/chemin/9"/><trkseg>
<trkpt lat="50.588130" lon="5.218792"><time>2026-05-02T20:46:11Z</time></trkpt>
<trkpt lat="50.585538" lon="5.219370"><time>2026-05-02T20:56:11Z</time></trkpt>
<trkpt lat="50.583743" lon="5.218699"><time>2026-05-02T21:06:11Z</time></trkpt>
</trkseg></trk>
<trk>
<name>lvbwd9</name>
<cmt>r</cmt>
<desc>Warnant-Dreye Chemin n°9 Rue d'Oultremont / A la Tombe</desc>
<link href="https://chemins.be/warnantdreye/chemin/9"/><trkseg>
<trkpt lat="50.583743" lon="5.218699"><time>2026-05-02T21:06:11Z</time></trkpt>
<trkpt lat="50.581768" lon="5.220781"><time>2026-05-02T21:16:11Z</time></trkpt>
</trkseg></trk>
<trk>
<name>lvbwd9</name>
<cmt>q</cmt>
<desc>Warnant-Dreye Chemin n°9 Rue d'Oultremont / A la Tombe</desc>
<link href="https://chemins.be/warnantdreye/chemin/9"/><trkseg>
<trkpt lat="50.581768" lon="5.220781"><time>2026-05-02T21:16:11Z</time></trkpt>
<trkpt lat="50.581335" lon="5.220985"><time>2026-05-02T21:26:11Z</time></trkpt>
<trkpt lat="50.580417" lon="5.221068"><time>2026-05-02T21:36:11Z</time></trkpt>
<trkpt lat="50.579622" lon="5.221576"><time>2026-05-02T21:46:11Z</time></trkpt>
<trkpt lat="50.578926" lon="5.222100"><time>2026-05-02T21:56:11Z</time></trkpt>
<trkpt lat="50.577728" lon="5.222445"><time>2026-05-02T22:06:11Z</time></trkpt>
</trkseg>
</trk>
<trk>
<name>lvbwdi1</name>
<cmt>r</cmt>
<desc>Warnant-Dreye Chemin n°i1 </desc>
<link href="https://chemins.be/warnantdreye/chemin/i1"/><trkseg>
<trkpt lat="50.581821" lon="5.220881"><time>2026-05-02T19:16:11Z</time></trkpt>
<trkpt lat="50.583207" lon="5.226851"><time>2026-05-02T19:26:11Z</time></trkpt>
<trkpt lat="50.585999" lon="5.238284"><time>2026-05-02T19:36:11Z</time></trkpt>
<trkpt lat="50.586541" lon="5.240413"><time>2026-05-02T19:46:11Z</time></trkpt>
</trkseg>
</trk>
<trk>
<name>lvbwdi2</name>
<cmt>v</cmt>
<desc>Warnant-Dreye Sentier n°i2 </desc>
<link href="https://chemins.be/warnantdreye/sentier/i2"/><trkseg>
<trkpt lat="50.594715" lon="5.226849"><time>2026-05-02T19:16:11Z</time></trkpt>
<trkpt lat="50.594608" lon="5.226705"><time>2026-05-02T19:26:11Z</time></trkpt>
<trkpt lat="50.594546" lon="5.226563"><time>2026-05-02T19:36:11Z</time></trkpt>
<trkpt lat="50.594298" lon="5.226050"><time>2026-05-02T19:46:11Z</time></trkpt>
</trkseg>
</trk>
<trk>
<name>lvbwdi3</name>
<cmt>v</cmt>
<desc>Warnant-Dreye Chemin n°i3 Les Bruyeres</desc>
<link href="https://chemins.be/warnantdreye/chemin/i3"/><trkseg>
<trkpt lat="50.601342" lon="5.235247"><time>2026-05-02T19:16:11Z</time></trkpt>
<trkpt lat="50.601268" lon="5.236673"><time>2026-05-02T19:26:11Z</time></trkpt>
<trkpt lat="50.600456" lon="5.237096"><time>2026-05-02T19:36:11Z</time></trkpt>
<trkpt lat="50.599835" lon="5.238454"><time>2026-05-02T19:46:11Z</time></trkpt>
<trkpt lat="50.599669" lon="5.241305"><time>2026-05-02T19:56:11Z</time></trkpt>
</trkseg></trk>
<trk>
<name>lvbwdi3</name>
<cmt>q</cmt>
<desc>Warnant-Dreye Chemin n°i3 Les Bruyeres</desc>
<link href="https://chemins.be/warnantdreye/chemin/i3"/><trkseg>
<trkpt lat="50.599669" lon="5.241305"><time>2026-05-02T19:56:11Z</time></trkpt>
<trkpt lat="50.598775" lon="5.244325"><time>2026-05-02T20:06:11Z</time></trkpt>
<trkpt lat="50.597845" lon="5.245961"><time>2026-05-02T20:16:11Z</time></trkpt>
<trkpt lat="50.598151" lon="5.248297"><time>2026-05-02T20:26:11Z</time></trkpt>
</trkseg>
</trk>
<trk>
<name>lvbwdi4</name>
<cmt>v</cmt>
<desc>Warnant-Dreye Chemin n°i4 </desc>
<link href="https://chemins.be/warnantdreye/chemin/i4"/><trkseg>
<trkpt lat="50.599590" lon="5.241343"><time>2026-05-02T19:16:11Z</time></trkpt>
<trkpt lat="50.600995" lon="5.241695"><time>2026-05-02T19:26:11Z</time></trkpt>
<trkpt lat="50.600930" lon="5.243283"><time>2026-05-02T19:36:11Z</time></trkpt>
</trkseg>
</trk>
<trk>
<name>lvbwdi5</name>
<cmt>v</cmt>
<desc>Warnant-Dreye Chemin n°i5 </desc>
<link href="https://chemins.be/warnantdreye/chemin/i5"/><trkseg>
<trkpt lat="50.589434" lon="5.236620"><time>2026-05-02T19:16:11Z</time></trkpt>
<trkpt lat="50.588949" lon="5.236878"><time>2026-05-02T19:26:11Z</time></trkpt>
<trkpt lat="50.588772" lon="5.235296"><time>2026-05-02T19:36:11Z</time></trkpt>
<trkpt lat="50.588589" lon="5.233659"><time>2026-05-02T19:46:11Z</time></trkpt>
</trkseg>
</trk>
<trk>
<name>lvbwdi6</name>
<cmt>v</cmt>
<desc>Warnant-Dreye Chemin n°i6 </desc>
<link href="https://chemins.be/warnantdreye/chemin/i6"/><trkseg>
<trkpt lat="50.596435" lon="5.200838"><time>2026-05-02T19:16:11Z</time></trkpt>
<trkpt lat="50.595666" lon="5.199272"><time>2026-05-02T19:26:11Z</time></trkpt>
</trkseg>
</trk>
</gpx>